Change the Weather History Date:

Monday, June 3, 2013

  Actual Average (KCBM) Record (KCBM)
Temperature  
Mean Temperature 76 °F -  
Max Temperature 87 °F 82 °F 97 °F (2011)
Min Temperature 64 °F 64 °F 60 °F (1997)
Cooling Degree Days 10    
Growing Degree Days 26 (Base 50)    
Moisture  
Dew Point 58 °F    
Average Humidity 55    
Maximum Humidity 60    
Minimum Humidity 52    
Precipitation  
Precipitation 0.00 in - - ()
Sea Level Pressure  
Sea Level Pressure 29.96 in    
Wind  
Wind Speed 0 mph (North)    
Max Wind Speed 0 mph    
Max Gust Speed -    
Visibility 8 miles    
Events      
Averages and records for this station are not official NWS values.
T = Trace of Precipitation, MM = Missing Value Source: NWS Daily Summary

Daily Weather History Graph

Daily Weather History Graph

Search for Another Location

Airport or City:

Trip Planner

Search our weather history database for the weather conditions in past years. The results will help you decide how hot, cold, wet, or windy it might be!

Date:

Astronomy

Jun. 03, 2013 Rise Set
Actual Time 5:43 AM CDT 8:01 PM CDT
Civil Twilight 5:14 AM CDT 8:29 PM CDT
Nautical Twilight 4:39 AM CDT 9:05 PM CDT
Astronomical Twilight 4:01 AM CDT 9:43 PM CDT
Moon 2:29 AM CDT (6/3) 3:41 PM CDT (6/3)
Length of Visible Light 15h 15m
Length of Day
14h 17m
Waning Crescent, 22% of the Moon is Illuminated
Jun 3
Waning Crescent
Jun 8
New
Jun 16
First Quarter
Jun 23
Full
Jun 29
Last Quarter

Hourly Weather History & Observations

Time (CDT) Temp. Heat Index Dew Point Humidity Pressure Visibility Wind Dir Wind Speed Gust Speed Precip Events Conditions
12:15 AM 69.8 °F - 53.6 °F 56% 29.94 in 8.0 mi North - - N/A   Partly Cloudy
12:35 AM 69.8 °F - 53.6 °F 56% 29.94 in 8.0 mi North - - N/A   Clear
12:55 AM 69.8 °F - 53.6 °F 56% 29.94 in 9.0 mi North - - N/A   Clear
1:15 AM 69.8 °F - 51.8 °F 53% 29.94 in 8.0 mi North - - N/A   Clear
1:35 AM 68.0 °F - 51.8 °F 56% 29.93 in 8.0 mi North - - N/A   Clear
1:55 AM 68.0 °F - 51.8 °F 56% 29.93 in 8.0 mi North - - N/A   Clear
2:15 AM 68.0 °F - 51.8 °F 56% 29.93 in 8.0 mi North - - N/A   Clear
2:35 AM 66.2 °F - 51.8 °F 60% 29.93 in 7.0 mi Calm Calm - N/A   Clear
2:55 AM 66.2 °F - 51.8 °F 60% 29.93 in 7.0 mi Calm Calm - N/A   Clear
3:15 AM 66.2 °F - 50.0 °F 56% 29.93 in 7.0 mi Calm Calm - N/A   Clear
3:35 AM 66.2 °F - 50.0 °F 56% 29.93 in 5.0 mi Calm Calm - N/A   Haze
3:55 AM 66.2 °F - 48.2 °F 52% 29.93 in 7.0 mi North - - N/A   Clear
4:15 AM 66.2 °F - 48.2 °F 52% 29.93 in 7.0 mi North - - N/A   Partly Cloudy
4:35 AM 66.2 °F - 48.2 °F 52% 29.93 in 7.0 mi North - - N/A   Mostly Cloudy
4:55 AM 66.2 °F - 48.2 °F 52% 29.94 in 8.0 mi North - - N/A   Mostly Cloudy
5:15 AM 66.2 °F - 50.0 °F 56% 29.95 in 9.0 mi North - - N/A   Mostly Cloudy
5:35 AM 66.2 °F - 48.2 °F 52% 29.96 in 9.0 mi Calm Calm - N/A   Mostly Cloudy
5:55 AM 66.2 °F - 48.2 °F 52% 29.96 in 7.0 mi North - - N/A   Mostly Cloudy
6:15 AM 66.2 °F - 50.0 °F 56% 29.96 in 7.0 mi North - - N/A   Mostly Cloudy
6:35 AM 66.2 °F - 50.0 °F 56% 29.98 in 8.0 mi North - - N/A   Scattered Clouds
6:55 AM 66.2 °F - 50.0 °F 56% 29.99 in 7.0 mi North - - N/A   Partly Cloudy
7:15 AM 68.0 °F - 51.8 °F 56% 30.00 in 8.0 mi North - - N/A   Scattered Clouds
7:35 AM 68.0 °F - 51.8 °F 56% 30.00 in 8.0 mi North - - N/A   Scattered Clouds
7:55 AM 69.8 °F - 53.6 °F 56% 30.00 in 9.0 mi North - - N/A   Partly Cloudy
8:15 AM 71.6 °F - 55.4 °F 57% 30.00 in 9.0 mi North - - N/A   Partly Cloudy
8:35 AM 73.4 °F - 55.4 °F 53% 30.00 in 10.0 mi North - - N/A   Clear
8:55 AM 75.2 °F - 57.2 °F 53% 30.00 in 9.0 mi North - - N/A   Clear
9:15 AM 75.2 °F - 59.0 °F 57% 30.00 in 9.0 mi North - - N/A   Clear
9:35 AM 78.8 °F - 60.8 °F 54% 30.01 in 9.0 mi North - - N/A   Clear
9:55 AM 78.8 °F - 62.6 °F 57% 30.01 in 9.0 mi North - - N/A   Clear
10:15 AM 80.6 °F 81.8 °F 62.6 °F 54% 30.00 in 9.0 mi North - - N/A   Clear
10:35 AM 82.4 °F 83.9 °F 64.4 °F 54% 30.00 in 8.0 mi North - - N/A   Clear
10:55 AM 82.4 °F 83.9 °F 64.4 °F 54% 30.00 in 9.0 mi North - - N/A   Scattered Clouds
11:15 AM 84.2 °F 86.6 °F 66.2 °F 55% 29.99 in 9.0 mi North - - N/A   Partly Cloudy
11:35 AM 84.2 °F 86.6 °F 66.2 °F 55% 29.99 in 9.0 mi North - - N/A   Partly Cloudy
11:55 AM 84.2 °F 87.3 °F 68.0 °F 58% 29.98 in 9.0 mi North - - N/A   Partly Cloudy
12:15 PM 84.2 °F 86.6 °F 66.2 °F 55% 29.98 in 9.0 mi North - - N/A   Partly Cloudy
12:35 PM 84.2 °F 86.6 °F 66.2 °F 55% 29.98 in 9.0 mi North - - N/A   Scattered Clouds
12:55 PM 84.2 °F 86.6 °F 66.2 °F 55% 29.98 in 9.0 mi North - - N/A   Scattered Clouds
1:15 PM 87.8 °F 92.6 °F 69.8 °F 55% 29.98 in 9.0 mi North - - N/A   Partly Cloudy
1:35 PM 86.0 °F 89.4 °F 68.0 °F 55% 29.97 in 9.0 mi North - - N/A   Partly Cloudy
1:55 PM 84.2 °F 86.6 °F 66.2 °F 55% 29.96 in 9.0 mi North - - N/A   Mostly Cloudy
2:15 PM 87.8 °F 92.6 °F 69.8 °F 55% 29.96 in 9.0 mi North - - N/A   Partly Cloudy
2:35 PM 84.2 °F 86.6 °F 66.2 °F 55% 29.95 in 10.0 mi North - - N/A   Partly Cloudy
2:55 PM 87.8 °F 92.6 °F 69.8 °F 55% 29.95 in 10.0 mi North - - N/A   Partly Cloudy
3:15 PM 87.8 °F 92.6 °F 69.8 °F 55% 29.94 in 9.0 mi North - - N/A   Partly Cloudy
3:35 PM 87.8 °F 92.6 °F 69.8 °F 55% 29.94 in 9.0 mi North - - N/A   Clear
3:55 PM 86.0 °F 90.4 °F 69.8 °F 58% 29.93 in 9.0 mi North - - N/A   Partly Cloudy
4:15 PM 87.8 °F 92.6 °F 69.8 °F 55% 29.93 in 9.0 mi North - - N/A   Scattered Clouds
4:35 PM 87.8 °F 92.6 °F 69.8 °F 55% 29.92 in 9.0 mi North - - N/A   Scattered Clouds
4:55 PM 87.8 °F 92.6 °F 69.8 °F 55% 29.92 in 9.0 mi North - - N/A   Mostly Cloudy
5:15 PM 86.0 °F 89.4 °F 68.0 °F 55% 29.92 in 9.0 mi North - - N/A   Partly Cloudy
5:35 PM 84.2 °F 87.3 °F 68.0 °F 58% 29.92 in 10.0 mi North - - N/A   Partly Cloudy
5:55 PM 84.2 °F 86.6 °F 66.2 °F 55% 29.92 in 9.0 mi North - - N/A   Partly Cloudy
6:15 PM 84.2 °F 86.6 °F 66.2 °F 55% 29.92 in 9.0 mi North - - N/A   Clear
6:35 PM 82.4 °F 84.6 °F 66.2 °F 58% 29.92 in 9.0 mi North - - N/A   Clear
6:55 PM 82.4 °F 83.9 °F 64.4 °F 54% 29.92 in 10.0 mi North - - N/A   Clear
7:15 PM 80.6 °F 82.3 °F 64.4 °F 58% 29.93 in 10.0 mi Calm Calm - N/A   Clear
7:35 PM 78.8 °F - 60.8 °F 54% 29.93 in 9.0 mi Calm Calm - N/A   Clear
7:55 PM 73.4 °F - 57.2 °F 57% 29.94 in 9.0 mi Calm Calm - N/A   Clear
8:15 PM 71.6 °F - 55.4 °F 57% 29.94 in 10.0 mi Calm Calm - N/A   Clear
8:35 PM 69.8 °F - 53.6 °F 56% 29.94 in 10.0 mi Calm Calm - N/A   Clear
8:55 PM 68.0 °F - 51.8 °F 56% 29.95 in 10.0 mi Calm Calm - N/A   Clear
9:15 PM 68.0 °F - 51.8 °F 56% 29.96 in 8.0 mi Calm Calm - N/A   Clear
9:35 PM 66.2 °F - 51.8 °F 60% 29.96 in 5.0 mi Calm Calm - N/A   Haze
9:55 PM 66.2 °F - 50.0 °F 56% 29.97 in 7.0 mi Calm Calm - N/A   Clear
10:15 PM 66.2 °F - 50.0 °F 56% 29.98 in 6.0 mi Calm Calm - N/A   Haze
10:35 PM 66.2 °F - 48.2 °F 52% 29.98 in 7.0 mi Calm Calm - N/A   Clear
10:55 PM 66.2 °F - 48.2 °F 52% 29.98 in 6.0 mi Calm Calm - N/A   Haze
11:15 PM 64.4 °F - 48.2 °F 56% 29.98 in 1.0 mi Calm Calm - N/A   Haze
11:35 PM 64.4 °F - 48.2 °F 56% 29.98 in 5.0 mi Calm Calm - N/A   Haze
11:55 PM 64.4 °F - 48.2 °F 56% 29.98 in 7.0 mi Calm Calm - N/A   Clear